• In Belarus
  • List of Countries
  • For 7 days
  • Water Temperature
  • Satellite Maps
  • Weather Map
  • Weather Widgets
  • user-avatar
    Login

    Hourly Weather Wadzhda

    Today, 15 December, Saturday

    Time Temperature Precipitation Wind Pressure Humidity
    00:00 +8°C° 0 mm 3 mps 719 mmHg 81%
    01:00 +8°C° 0 mm 3 mps 720 mmHg 81%
    02:00 +8°C° 0 mm 2 mps 720 mmHg 81%
    03:00 +7°C° 0 mm 2 mps 720 mmHg 81%
    04:00 +7°C° 0 mm 2 mps 720 mmHg 80%
    05:00 +7°C° 0 mm 2 mps 720 mmHg 79%
    06:00 +7°C° 0 mm 2 mps 720 mmHg 78%
    07:00 +8°C° 0 mm 2 mps 720 mmHg 72%
    08:00 +9°C° 0 mm 2 mps 720 mmHg 65%
    09:00 +10°C° 0 mm 2 mps 721 mmHg 59%
    10:00 +12°C° 0 mm 2 mps 721 mmHg 51%
    11:00 +14°C° 0 mm 2 mps 721 mmHg 44%
    12:00 +15°C° 0 mm 2 mps 721 mmHg 37%
    13:00 +16°C° 0 mm 2 mps 720 mmHg 35%
    14:00 +17°C° 0 mm 2 mps 720 mmHg 33%
    15:00 +18°C° 0 mm 1 mps 720 mmHg 31%
    16:00 +16°C° 0 mm 1 mps 720 mmHg 37%
    17:00 +14°C° 0 mm 1 mps 719 mmHg 42%
    18:00 +12°C° 0 mm 0 mps 719 mmHg 47%
    19:00 +13°C° 0 mm 1 mps 719 mmHg 46%
    20:00 +13°C° 0 mm 1 mps 719 mmHg 45%
    21:00 +13°C° 0 mm 1 mps 719 mmHg 43%
    22:00 +13°C° 0 mm 1 mps 719 mmHg 43%
    23:00 +13°C° 0 mm 1 mps 719 mmHg 42%

    Tomorrow, 16 December, Sunday

    Time Temperature Precipitation Wind Pressure Humidity
    00:00 +13°C° 0 mm 2 mps 719 mmHg 42%
    01:00 +13°C° 0 mm 2 mps 719 mmHg 42%
    02:00 +12°C° 0 mm 2 mps 718 mmHg 42%
    03:00 +12°C° 0 mm 2 mps 718 mmHg 42%
    04:00 +12°C° 0 mm 2 mps 718 mmHg 42%
    05:00 +12°C° 0 mm 2 mps 718 mmHg 42%
    06:00 +12°C° 0 mm 2 mps 718 mmHg 43%
    07:00 +13°C° 0 mm 2 mps 718 mmHg 41%
    08:00 +15°C° 0 mm 2 mps 718 mmHg 39%
    09:00 +16°C° 0 mm 2 mps 719 mmHg 37%
    10:00 +17°C° 0 mm 2 mps 719 mmHg 33%
    11:00 +19°C° 0 mm 2 mps 719 mmHg 30%
    12:00 +21°C° 0 mm 2 mps 719 mmHg 26%
    13:00 +21°C° 0 mm 3 mps 719 mmHg 27%
    14:00 +21°C° 0 mm 3 mps 719 mmHg 28%
    15:00 +21°C° 0 mm 4 mps 719 mmHg 30%
    16:00 +19°C° 0 mm 3 mps 719 mmHg 38%
    17:00 +17°C° 0 mm 2 mps 719 mmHg 47%
    18:00 +15°C° 0 mm 1 mps 719 mmHg 56%
    19:00 +14°C° 0 mm 1 mps 719 mmHg 55%
    20:00 +14°C° 0 mm 1 mps 720 mmHg 55%
    21:00 +14°C° 0 mm 1 mps 720 mmHg 54%
    22:00 +13°C° 0 mm 1 mps 720 mmHg 54%
    23:00 +13°C° 0 mm 1 mps 720 mmHg 54%

    Day after tomorrow, 17 December, Monday

    Time Temperature Precipitation Wind Pressure Humidity
    00:00 +13°C° 0 mm 1 mps 719 mmHg 54%
    01:00 +12°C° 0 mm 1 mps 719 mmHg 54%
    02:00 +11°C° 0 mm 0 mps 719 mmHg 55%
    03:00 +11°C° 0 mm 0 mps 719 mmHg 56%
    04:00 +10°C° 0 mm 0 mps 719 mmHg 58%
    05:00 +10°C° 0 mm 0 mps 719 mmHg 59%
    06:00 +10°C° 0 mm 0 mps 719 mmHg 61%
    07:00 +11°C° 0 mm 0 mps 720 mmHg 56%
    08:00 +14°C° 0 mm 1 mps 720 mmHg 52%
    09:00 +16°C° 0 mm 1 mps 721 mmHg 47%
    10:00 +18°C° 0 mm 1 mps 721 mmHg 45%
    11:00 +19°C° 0 mm 1 mps 721 mmHg 43%
    12:00 +20°C° 0 mm 1 mps 720 mmHg 41%
    13:00 +20°C° 0 mm 1 mps 720 mmHg 42%
    14:00 +19°C° 0 mm 2 mps 720 mmHg 43%
    15:00 +19°C° 0 mm 2 mps 719 mmHg 43%
    16:00 +18°C° 0 mm 2 mps 719 mmHg 52%
    17:00 +16°C° 0 mm 1 mps 719 mmHg 61%
    18:00 +14°C° 0 mm 1 mps 720 mmHg 70%
    19:00 +14°C° 0 mm 1 mps 720 mmHg 71%
    20:00 +14°C° 0 mm 1 mps 720 mmHg 71%
    21:00 +13°C° 0 mm 1 mps 720 mmHg 72%
    22:00 +13°C° 0 mm 1 mps 720 mmHg 69%
    23:00 +13°C° 0 mm 1 mps 720 mmHg 67%

    18 December, Tuesday

    Time Temperature Precipitation Wind Pressure Humidity
    00:00 +13°C° 0 mm 1 mps 719 mmHg 65%
    01:00 +12°C° 0 mm 2 mps 719 mmHg 64%
    02:00 +12°C° 0 mm 2 mps 718 mmHg 62%
    03:00 +12°C° 0 mm 2 mps 718 mmHg 61%
    04:00 +12°C° 0 mm 2 mps 718 mmHg 60%
    05:00 +10°C° 0 mm 2 mps 718 mmHg 60%
    06:00 +10°C° 0 mm 2 mps 718 mmHg 59%
    07:00 +12°C° 0 mm 2 mps 718 mmHg 54%
    08:00 +14°C° 0 mm 2 mps 719 mmHg 49%
    09:00 +15°C° 0 mm 2 mps 719 mmHg 44%
    10:00 +16°C° 0 mm 3 mps 719 mmHg 40%
    11:00 +18°C° 0 mm 3 mps 719 mmHg 36%
    12:00 +19°C° 0 mm 3 mps 719 mmHg 31%
    13:00 +20°C° 0 mm 3 mps 718 mmHg 32%
    14:00 +20°C° 0 mm 3 mps 718 mmHg 32%
    15:00 +20°C° 0 mm 3 mps 717 mmHg 33%
    16:00 +18°C° 0 mm 2 mps 717 mmHg 41%
    17:00 +16°C° 0 mm 2 mps 717 mmHg 48%
    18:00 +14°C° 0 mm 1 mps 717 mmHg 56%
    19:00 +14°C° 0 mm 1 mps 717 mmHg 53%
    20:00 +14°C° 0 mm 1 mps 718 mmHg 50%
    21:00 +14°C° 0 mm 2 mps 718 mmHg 48%
    22:00 +14°C° 0 mm 2 mps 718 mmHg 49%
    23:00 +13°C° 0 mm 2 mps 718 mmHg 50%

    19 December, Wednesday

    Time Temperature Precipitation Wind Pressure Humidity
    00:00 +13°C° 0 mm 2 mps 718 mmHg 51%
    01:00 +13°C° 0 mm 2 mps 717 mmHg 51%
    02:00 +13°C° 0 mm 2 mps 717 mmHg 50%
    03:00 +13°C° 0 mm 2 mps 717 mmHg 50%
    04:00 +13°C° 0 mm 2 mps 717 mmHg 51%
    05:00 +13°C° 0 mm 2 mps 717 mmHg 52%
    06:00 +12°C° 0 mm 2 mps 717 mmHg 53%
    07:00 +13°C° 0 mm 2 mps 717 mmHg 52%
    08:00 +14°C° 0 mm 2 mps 718 mmHg 50%
    09:00 +15°C° 0 mm 1 mps 718 mmHg 49%
    10:00 +17°C° 0 mm 2 mps 718 mmHg 45%
    11:00 +18°C° 0 mm 3 mps 718 mmHg 40%
    12:00 +19°C° 0 mm 3 mps 718 mmHg 36%
    13:00 +19°C° 0 mm 4 mps 718 mmHg 38%
    14:00 +18°C° 0 mm 4 mps 717 mmHg 41%
    15:00 +18°C° 0 mm 4 mps 717 mmHg 43%
    16:00 +17°C° 0 mm 3 mps 717 mmHg 50%
    17:00 +16°C° 0 mm 3 mps 718 mmHg 58%
    18:00 +15°C° 0 mm 2 mps 718 mmHg 65%
    19:00 +14°C° 0 mm 1 mps 718 mmHg 71%
    20:00 +13°C° 0 mm 1 mps 718 mmHg 76%
    21:00 +12°C° 0 mm 1 mps 719 mmHg 82%
    22:00 +12°C° 0 mm 1 mps 719 mmHg 83%
    23:00 +11°C° 0 mm 1 mps 719 mmHg 84%

    20 December, Thursday

    Time Temperature Precipitation Wind Pressure Humidity
    00:00 +11°C° 0 mm 1 mps 719 mmHg 85%
    01:00 +10°C° 0 mm 1 mps 719 mmHg 85%
    02:00 +10°C° 0 mm 1 mps 719 mmHg 84%
    03:00 +8°C° 0 mm 0 mps 719 mmHg 84%
    04:00 +9°C° 0 mm 1 mps 719 mmHg 83%
    05:00 +9°C° 0 mm 1 mps 719 mmHg 82%
    06:00 +9°C° 0 mm 1 mps 719 mmHg 81%
    07:00 +10°C° 0 mm 1 mps 719 mmHg 75%
    08:00 +11°C° 0 mm 1 mps 720 mmHg 69%
    09:00 +11°C° 0 mm 0 mps 721 mmHg 63%
    10:00 +13°C° 0 mm 1 mps 720 mmHg 59%
    11:00 +14°C° 0 mm 1 mps 720 mmHg 55%
    12:00 +14°C° 0 mm 2 mps 720 mmHg 51%
    13:00 +15°C° 0 mm 2 mps 720 mmHg 50%
    14:00 +15°C° 0 mm 2 mps 719 mmHg 48%
    15:00 +14°C° 0 mm 3 mps 719 mmHg 47%
    16:00 +14°C° 0 mm 2 mps 719 mmHg 53%
    17:00 +13°C° 0 mm 2 mps 719 mmHg 58%
    18:00 +12°C° 0 mm 2 mps 720 mmHg 64%
    19:00 +11°C° 0 mm 1 mps 720 mmHg 68%
    20:00 +10°C° 0 mm 1 mps 720 mmHg 71%
    21:00 +10°C° 0 mm 1 mps 720 mmHg 75%
    22:00 +9°C° 0 mm 1 mps 720 mmHg 76%
    23:00 +9°C° 0 mm 1 mps 720 mmHg 76%
    Show more